Tracking 29892 objects as of 21-Nov-2024
HD Live streaming from Space Station
objects crossing your sky now

STARLINK-4545

Track STARLINK-4545 now!
10-day predictions
STARLINK-4545 is classified as:


NORAD ID: 53421
Int'l Code: 2022-097AK
Perigee: 546.1 km
Apogee: 547.6 km
Inclination: 53.2 °
Period: 95.4 minutes
Semi major axis: 6917 km
RCS: Unknown
Launch date: August 10, 2022
Source: United States (US)
Launch site: AIR FORCE EASTERN TEST RANGE (AFETR)
Your satellite tracking list
Your tracking list is empty




NASA's NSSDC Master Catalog

Two Line Element Set (TLE):
1 53421U 22097AK  24324.67263768  .00000626  00000-0  57420-4 0  9991
2 53421  53.2166  86.5554 0001050 100.6444 259.4666 15.08851272126914
Source of the keplerian elements: AFSPC